FW6550 Weather Reports


time (UTC)temp
F
wind
direction
speed
knots
gust
knots
rain 1hr
in
rain 24hr
in
rain mn
in
humidity
%
barometer
mb
20260503010037 62 0 0.0 0.0 0.00 0.02 0.01 51 1017.3
20260503004556 64 0 0.0 0.0 0.00 0.03 0.01 47 1017.2
20260503003033 65 0 0.0 0.0 0.00 0.03 0.01 45 1017.1
20260503001532 66 0 0.0 1.7 0.00 0.03 0.01 42 1016.8
20260503000040 67 0 0.0 2.6 0.00 0.03 0.01 40 1016.6
20260502234536 68 347 0.9 3.5 0.00 0.03 0.01 38 1016.3
20260502233034 69 321 1.7 7.0 0.00 0.03 0.01 37 1016.3
20260502231537 69 352 0.9 8.7 0.00 0.03 0.01 36 1016.2
20260502230033 69 315 1.7 6.1 0.00 0.03 0.01 36 1016.2
20260502224533 70 325 2.6 8.7 0.00 0.03 0.01 34 1016.2
20260502223033 70 360 1.7 7.8 0.00 0.03 0.01 35 1016.1
20260502221532 70 352 0.9 7.0 0.00 0.03 0.01 35 1016.1
20260502220035 70 325 1.7 7.8 0.00 0.03 0.01 36 1016.0
20260502214534 70 294 1.7 7.8 0.00 0.03 0.01 38 1015.7
20260502213035 70 0 0.9 7.0 0.00 0.03 0.01 37 1015.9
20260502211538 70 328 2.6 7.8 0.00 0.03 0.01 37 1016.0
20260502210033 71 298 2.6 5.2 0.00 0.03 0.01 35 1016.1
20260502204532 71 352 1.7 8.7 0.00 0.03 0.01 34 1016.3
20260502203033 71 46 2.6 10.4 0.00 0.03 0.01 35 1016.3
20260502201531 72 281 2.6 8.7 0.00 0.03 0.01 35 1016.4
20260502200043 72 319 1.7 7.8 0.00 0.03 0.01 35 1016.3
20260502194534 72 286 1.7 7.8 0.00 0.03 0.01 39 1016.3
20260502193033 71 347 1.7 11.3 0.00 0.03 0.01 38 1016.4
20260502191531 71 341 0.9 9.6 0.00 0.03 0.01 37 1016.4
20260502190035 71 101 1.7 8.7 0.00 0.03 0.01 38 1016.5
20260502184537 71 33 1.7 8.7 0.00 0.03 0.01 36 1016.7
20260502183032 71 32 1.7 7.8 0.00 0.03 0.01 38 1016.7
20260502181534 70 315 0.9 7.0 0.00 0.03 0.01 40 1016.8
20260502163036 66 350 2.6 10.4 0.00 0.03 0.01 45 1017.6
20260502161531 66 296 1.7 9.6 0.00 0.03 0.01 44 1017.7
20260502151540 62 341 0.9 7.0 0.00 0.03 0.01 60 1017.6
20260502123044 54 0 0.0 3.5 0.00 0.03 0.01 71 1015.4
20260502121532 54 0 0.9 7.0 0.00 0.03 0.01 70 1015.1
20260502114537 54 0 0.0 4.3 0.00 0.03 0.01 73 1014.9
20260502113039 54 0 0.0 2.6 0.00 0.03 0.01 72 1014.6
20260502111544 54 0 0.0 6.1 0.00 0.03 0.01 71 1014.4
20260502110032 54 0 0.0 1.7 0.00 0.03 0.01 72 1014.4
20260502104531 54 0 0.0 2.6 0.00 0.03 0.01 73 1014.4
20260502103033 54 0 0.0 3.5 0.00 0.03 0.01 74 1014.2
20260502101537 54 311 0.0 3.5 0.00 0.03 0.01 74 1014.0
20260502091532 55 0 0.9 5.2 0.00 0.03 0.01 75 1014.5
20260502070039 56 0 0.0 1.7 0.00 0.02 0.00 39 1014.9
20260502064535 57 0 0.0 1.7 0.00 0.02 0.00 33 1014.6
20260502063039 57 0 0.0 0.0 0.00 0.02 0.00 31 1015.2
20260502061534 57 0 0.0 0.9 0.00 0.02 0.00 30 1015.3
20260502060039 57 0 0.0 0.0 0.00 0.02 0.00 28 1015.4
20260502054536 57 0 0.0 0.0 0.00 0.02 0.00 29 1015.3
20260502053050 57 0 0.0 0.0 0.00 0.02 0.00 28 1015.0
20260502051535 57 0 0.0 0.0 0.00 0.02 0.00 30 1015.0
20260502050035 57 0 0.0 0.0 0.00 0.02 0.00 29 1015.0
20260502044533 57 0 0.0 0.0 0.00 0.02 0.02 30 1014.8
20260502043039 57 0 0.0 0.0 0.00 0.02 0.02 32 1014.5
20260502041538 57 0 0.0 0.0 0.00 0.02 0.02 31 1014.7
20260502040036 57 0 0.0 0.0 0.00 0.02 0.02 32 1014.6
20260502034534 58 0 0.0 0.0 0.00 0.02 0.02 32 1014.5
20260502033032 58 0 0.0 0.0 0.00 0.02 0.02 32 1014.8
20260502031534 58 0 0.0 0.0 0.00 0.02 0.02 34 1014.4
20260502030032 58 0 0.0 0.0 0.00 0.02 0.02 33 1014.3
20260502024533 58 0 0.0 0.0 0.00 0.02 0.02 34 1014.5
20260502023037 58 0 0.0 0.0 0.01 0.02 0.02 36 1014.7
20260502021535 58 0 0.0 0.9 0.01 0.02 0.02 39 1014.8
20260502020039 59 0 0.0 0.0 0.01 0.02 0.02 39 1014.7
20260502014532 59 0 0.0 0.0 0.01 0.02 0.02 43 1015.0
20260502013034 59 0 0.0 0.0 0.01 0.01 0.01 49 1015.2
20260502011532 59 0 0.0 0.0 0.01 0.01 0.01 53 1015.1